Time,TemperatureF,DewpointF,PressureIn,WindDirection,WindDirectionDegrees,WindSpeedMPH,WindSpeedGustMPH,Humidity,HourlyPrecipIn,Conditions,Clouds,dailyrainin,SoftwareType,DateUTC
2013-04-23 00:15:00,47.5,44.4,29.95,West,270,0.0,-999.0,89,-99.99,,,0.00,Acu-Link.com,2013-04-23 04:15:00,
2013-04-23 00:30:00,46.9,43.5,29.95,West,270,0.0,-999.0,88,-99.99,,,0.00,Acu-Link.com,2013-04-23 04:30:00,
2013-04-23 00:45:00,46.4,43.6,29.94,West,270,0.0,-999.0,90,-99.99,,,0.00,Acu-Link.com,2013-04-23 04:45:00,
2013-04-23 01:01:00,46.2,45.7,29.94,West,270,0.0,-999.0,98,-99.99,,,0.00,Acu-Link.com,2013-04-23 05:01:00,
2013-04-23 01:16:00,45.9,45.4,29.95,NNE,22,0.0,-999.0,98,-99.99,,,0.00,Acu-Link.com,2013-04-23 05:16:00,
2013-04-23 01:32:00,46.0,45.5,29.95,NE,45,0.0,-999.0,98,-99.99,,,0.00,Acu-Link.com,2013-04-23 05:32:00,
2013-04-23 01:47:00,45.7,45.2,29.96,ESE,112,0.0,-999.0,98,-99.99,,,0.00,Acu-Link.com,2013-04-23 05:47:00,
2013-04-23 02:03:00,45.3,44.8,29.96,North,0,2.2,-999.0,98,-99.99,,,0.00,Acu-Link.com,2013-04-23 06:03:00,
2013-04-23 02:18:00,45.0,44.5,29.96,South,180,0.0,-999.0,98,-99.99,,,0.00,Acu-Link.com,2013-04-23 06:18:00,
2013-04-23 02:33:00,44.6,44.1,29.96,NNE,22,0.0,-999.0,98,-99.99,,,0.00,Acu-Link.com,2013-04-23 06:33:00,
2013-04-23 02:48:00,44.1,43.6,29.96,NE,45,0.0,-999.0,98,-99.99,,,0.00,Acu-Link.com,2013-04-23 06:48:00,
2013-04-23 03:04:00,44.1,43.6,29.96,NE,45,0.0,-999.0,98,-99.99,,,0.00,Acu-Link.com,2013-04-23 07:04:00,
2013-04-23 03:19:00,43.9,43.4,29.96,NNW,337,0.0,-999.0,98,-99.99,,,0.00,Acu-Link.com,2013-04-23 07:19:00,
2013-04-23 03:34:00,43.5,43.0,29.95,ENE,67,0.0,-999.0,98,-99.99,,,0.00,Acu-Link.com,2013-04-23 07:34:00,
2013-04-23 03:49:00,43.2,42.7,29.95,ENE,67,0.0,-999.0,98,-99.99,,,0.00,Acu-Link.com,2013-04-23 07:49:00,
2013-04-23 04:05:00,42.8,42.3,29.96,ENE,67,0.0,-999.0,98,-99.99,,,0.00,Acu-Link.com,2013-04-23 08:05:00,
2013-04-23 04:20:00,43.3,42.8,29.96,ENE,67,0.0,-999.0,98,-99.99,,,0.00,Acu-Link.com,2013-04-23 08:20:00,
2013-04-23 04:35:00,43.3,42.8,29.96,ENE,67,0.0,-999.0,98,-99.99,,,0.00,Acu-Link.com,2013-04-23 08:35:00,
2013-04-23 04:51:00,43.0,42.5,29.97,ENE,67,0.0,-999.0,98,-99.99,,,0.00,Acu-Link.com,2013-04-23 08:51:00,
2013-04-23 05:06:00,43.0,42.5,29.97,ENE,67,0.0,-999.0,98,-99.99,,,0.00,Acu-Link.com,2013-04-23 09:06:00,
2013-04-23 05:21:00,42.4,41.9,29.97,ENE,67,0.0,-999.0,98,-99.99,,,0.00,Acu-Link.com,2013-04-23 09:21:00,
2013-04-23 05:36:00,42.3,41.8,29.96,ENE,67,0.0,-999.0,98,-99.99,,,0.00,Acu-Link.com,2013-04-23 09:36:00,
2013-04-23 05:52:00,41.7,41.2,29.97,ENE,67,0.0,-999.0,98,-99.99,,,0.00,Acu-Link.com,2013-04-23 09:52:00,
2013-04-23 06:07:00,41.9,41.4,29.95,ESE,112,0.0,-999.0,98,-99.99,,,0.00,Acu-Link.com,2013-04-23 10:07:00,
2013-04-23 06:22:00,41.9,41.4,29.95,North,0,0.0,-999.0,98,-99.99,,,0.00,Acu-Link.com,2013-04-23 10:22:00,
2013-04-23 06:38:00,41.7,41.2,29.95,West,270,0.0,-999.0,98,-99.99,,,0.00,Acu-Link.com,2013-04-23 10:38:00,
2013-04-23 06:53:00,41.2,40.7,29.97,West,270,0.0,-999.0,98,-99.99,,,0.00,Acu-Link.com,2013-04-23 10:53:00,
2013-04-23 07:08:00,41.0,40.5,29.98,SE,135,0.0,-999.0,98,-99.99,,,0.00,Acu-Link.com,2013-04-23 11:08:00,
2013-04-23 07:23:00,41.7,41.2,29.99,South,180,0.0,-999.0,98,-99.99,,,0.00,Acu-Link.com,2013-04-23 11:23:00,
2013-04-23 07:39:00,42.3,41.8,29.98,South,180,0.0,-999.0,98,-99.99,,,0.00,Acu-Link.com,2013-04-23 11:39:00,
2013-04-23 07:54:00,43.3,42.8,29.99,NNE,22,0.0,-999.0,98,-99.99,,,0.00,Acu-Link.com,2013-04-23 11:54:00,
2013-04-23 08:09:00,45.3,44.8,30.00,South,180,0.0,-999.0,98,-99.99,,,0.00,Acu-Link.com,2013-04-23 12:09:00,
2013-04-23 08:24:00,46.9,46.4,29.98,West,270,0.0,-999.0,98,-99.99,,,0.00,Acu-Link.com,2013-04-23 12:24:00,
2013-04-23 08:40:00,48.6,44.0,29.99,ESE,112,1.7,-999.0,84,-99.99,,,0.00,Acu-Link.com,2013-04-23 12:40:00,
2013-04-23 08:55:00,50.9,42.9,30.00,North,0,5.3,-999.0,74,-99.99,,,0.00,Acu-Link.com,2013-04-23 12:55:00,
2013-04-23 09:10:00,52.9,41.5,30.00,SE,135,1.7,-999.0,65,-99.99,,,0.00,Acu-Link.com,2013-04-23 13:10:00,
2013-04-23 09:25:00,54.5,41.3,29.99,NE,45,2.7,-999.0,61,-99.99,,,0.00,Acu-Link.com,2013-04-23 13:25:00,
2013-04-23 09:41:00,55.4,40.0,30.00,North,0,2.2,-999.0,56,-99.99,,,0.00,Acu-Link.com,2013-04-23 13:41:00,
2013-04-23 09:56:00,56.3,38.4,30.01,NE,45,2.7,-999.0,51,-99.99,,,0.00,Acu-Link.com,2013-04-23 13:56:00,
2013-04-23 10:11:00,59.2,41.1,30.00,East,90,0.0,-999.0,51,-99.99,,,0.00,Acu-Link.com,2013-04-23 14:11:00,
2013-04-23 10:26:00,61.7,41.8,30.01,ESE,112,2.2,-999.0,48,-99.99,,,0.00,Acu-Link.com,2013-04-23 14:26:00,
2013-04-23 10:42:00,62.1,41.1,30.01,NNE,22,2.7,-999.0,46,-99.99,,,0.00,Acu-Link.com,2013-04-23 14:42:00,
2013-04-23 10:57:00,63.5,41.8,30.00,North,0,2.2,-999.0,45,-99.99,,,0.00,Acu-Link.com,2013-04-23 14:57:00,
2013-04-23 11:12:00,64.2,43.0,30.00,ESE,112,1.7,-999.0,46,-99.99,,,0.00,Acu-Link.com,2013-04-23 15:12:00,
2013-04-23 11:28:00,65.3,42.8,30.00,NE,45,4.2,-999.0,44,-99.99,,,0.00,Acu-Link.com,2013-04-23 15:28:00,
2013-04-23 11:43:00,66.9,44.3,29.98,SSE,157,2.2,-999.0,44,-99.99,,,0.00,Acu-Link.com,2013-04-23 15:43:00,
2013-04-23 11:58:00,66.0,44.6,29.98,NNE,22,2.7,-999.0,46,-99.99,,,0.00,Acu-Link.com,2013-04-23 15:58:00,
2013-04-23 12:13:00,71.2,43.6,29.97,South,180,3.7,-999.0,37,-99.99,,,0.00,Acu-Link.com,2013-04-23 16:13:00,
2013-04-23 12:28:00,73.4,46.2,29.96,ESE,112,1.7,-999.0,38,-99.99,,,0.00,Acu-Link.com,2013-04-23 16:28:00,
2013-04-23 12:44:00,72.9,45.1,29.96,SSE,157,4.2,-999.0,37,-99.99,,,0.00,Acu-Link.com,2013-04-23 16:44:00,
2013-04-23 12:59:00,76.1,44.9,29.94,West,270,3.7,-999.0,33,-99.99,,,0.00,Acu-Link.com,2013-04-23 16:59:00,
2013-04-23 13:14:00,80.8,45.6,29.93,NW,315,2.7,-999.0,29,-99.99,,,0.00,Acu-Link.com,2013-04-23 17:14:00,
2013-04-23 13:29:00,77.4,49.1,29.92,North,0,2.7,-999.0,37,-99.99,,,0.00,Acu-Link.com,2013-04-23 17:29:00,
2013-04-23 13:45:00,80.2,47.6,29.91,NNE,22,3.7,-999.0,32,-99.99,,,0.00,Acu-Link.com,2013-04-23 17:45:00,
2013-04-23 14:00:00,78.8,48.0,29.91,SSE,157,3.7,-999.0,34,-99.99,,,0.00,Acu-Link.com,2013-04-23 18:00:00,
2013-04-23 14:15:00,82.2,45.8,29.90,ENE,67,1.7,-999.0,28,-99.99,,,0.00,Acu-Link.com,2013-04-23 18:15:00,
2013-04-23 14:31:00,81.3,46.0,29.89,SW,225,3.2,-999.0,29,-99.99,,,0.00,Acu-Link.com,2013-04-23 18:31:00,
2013-04-23 14:46:00,82.4,46.9,29.88,SSE,157,3.2,-999.0,29,-99.99,,,0.00,Acu-Link.com,2013-04-23 18:46:00,
2013-04-23 15:01:00,81.7,45.4,29.88,SW,225,2.7,-999.0,28,-99.99,,,0.00,Acu-Link.com,2013-04-23 19:01:00,
2013-04-23 15:16:00,79.3,45.2,29.87,SW,225,4.7,-999.0,30,-99.99,,,0.00,Acu-Link.com,2013-04-23 19:16:00,
2013-04-23 15:31:00,79.5,46.2,29.86,ESE,112,4.7,-999.0,31,-99.99,,,0.00,Acu-Link.com,2013-04-23 19:31:00,
2013-04-23 15:46:00,81.5,45.2,29.86,SSE,157,2.7,-999.0,28,-99.99,,,0.00,Acu-Link.com,2013-04-23 19:46:00,
2013-04-23 16:02:00,79.7,48.0,29.85,South,180,4.2,-999.0,33,-99.99,,,0.00,Acu-Link.com,2013-04-23 20:02:00,
2013-04-23 16:17:00,78.8,47.2,29.85,ESE,112,3.7,-999.0,33,-99.99,,,0.00,Acu-Link.com,2013-04-23 20:17:00,
2013-04-23 16:32:00,77.4,47.6,29.84,West,270,4.2,-999.0,35,-99.99,,,0.00,Acu-Link.com,2013-04-23 20:32:00,
2013-04-23 16:48:00,77.2,46.6,29.84,SSW,202,3.2,-999.0,34,-99.99,,,0.00,Acu-Link.com,2013-04-23 20:48:00,
2013-04-23 17:03:00,76.1,45.7,29.83,WSW,247,2.2,-999.0,34,-99.99,,,0.00,Acu-Link.com,2013-04-23 21:03:00,
2013-04-23 17:18:00,75.2,45.7,29.83,SSE,157,2.2,-999.0,35,-99.99,,,0.00,Acu-Link.com,2013-04-23 21:18:00,
2013-04-23 17:34:00,74.8,46.8,29.83,SW,225,1.7,-999.0,37,-99.99,,,0.00,Acu-Link.com,2013-04-23 21:34:00,
2013-04-23 17:49:00,74.1,48.9,29.82,South,180,0.0,-999.0,41,-99.99,,,0.00,Acu-Link.com,2013-04-23 21:49:00,
2013-04-23 18:04:00,74.3,46.3,29.82,West,270,0.0,-999.0,37,-99.99,,,0.00,Acu-Link.com,2013-04-23 22:04:00,
2013-04-23 18:20:00,72.9,47.1,29.81,South,180,0.0,-999.0,40,-99.99,,,0.00,Acu-Link.com,2013-04-23 22:20:00,
2013-04-23 18:35:00,72.9,47.8,29.81,SSE,157,0.0,-999.0,41,-99.99,,,0.00,Acu-Link.com,2013-04-23 22:35:00,
2013-04-23 18:50:00,72.7,47.6,29.80,South,180,2.7,-999.0,41,-99.99,,,0.00,Acu-Link.com,2013-04-23 22:50:00,
2013-04-23 19:06:00,73.0,46.6,29.80,SSE,157,0.0,-999.0,39,-99.99,,,0.00,Acu-Link.com,2013-04-23 23:06:00,
2013-04-23 19:21:00,73.0,45.9,29.80,North,0,0.0,-999.0,38,-99.99,,,0.00,Acu-Link.com,2013-04-23 23:21:00,
2013-04-23 19:36:00,71.2,46.9,29.79,NE,45,0.0,-999.0,42,-99.99,,,0.00,Acu-Link.com,2013-04-23 23:36:00,
2013-04-23 19:51:00,69.1,49.1,29.81,SSE,157,0.0,-999.0,49,-99.99,,,0.00,Acu-Link.com,2013-04-23 23:51:00,
2013-04-23 20:07:00,66.7,50.5,29.80,SE,135,0.0,-999.0,56,-99.99,,,0.00,Acu-Link.com,2013-04-24 00:07:00,
2013-04-23 20:22:00,64.8,50.6,29.79,SE,135,0.0,-999.0,60,-99.99,,,0.00,Acu-Link.com,2013-04-24 00:22:00,
2013-04-23 20:37:00,62.6,50.2,29.79,SE,135,0.0,-999.0,64,-99.99,,,0.00,Acu-Link.com,2013-04-24 00:37:00,
2013-04-23 20:52:00,60.6,50.0,29.80,SE,135,0.0,-999.0,68,-99.99,,,0.00,Acu-Link.com,2013-04-24 00:52:00,
2013-04-23 21:08:00,59.5,50.5,29.80,SE,135,0.0,-999.0,72,-99.99,,,0.00,Acu-Link.com,2013-04-24 01:08:00,
2013-04-23 21:23:00,58.3,50.0,29.80,SE,135,0.0,-999.0,74,-99.99,,,0.00,Acu-Link.com,2013-04-24 01:23:00,
2013-04-23 21:38:00,57.2,50.7,29.81,SE,135,0.0,-999.0,79,-99.99,,,0.00,Acu-Link.com,2013-04-24 01:38:00,
2013-04-23 21:54:00,56.3,51.5,29.82,SE,135,0.0,-999.0,84,-99.99,,,0.00,Acu-Link.com,2013-04-24 01:54:00,
2013-04-23 22:09:00,55.4,51.0,29.83,SE,135,0.0,-999.0,85,-99.99,,,0.00,Acu-Link.com,2013-04-24 02:09:00,
2013-04-23 22:40:00,54.1,50.3,29.82,West,270,0.0,-999.0,87,-99.99,,,0.00,Acu-Link.com,2013-04-24 02:40:00,
2013-04-23 23:10:00,54.1,50.6,29.83,WNW,292,0.0,-999.0,88,-99.99,,,0.00,Acu-Link.com,2013-04-24 03:10:00,
2013-04-23 23:26:00,55.0,49.9,29.82,SW,225,0.0,-999.0,83,-99.99,,,0.00,Acu-Link.com,2013-04-24 03:26:00,
2013-04-23 23:41:00,57.6,50.1,29.82,SW,225,1.7,-999.0,76,-99.99,,,0.00,Acu-Link.com,2013-04-24 03:41:00,
2013-04-23 23:56:00,58.5,49.9,29.82,SW,225,2.2,-999.0,73,-99.99,,,0.00,Acu-Link.com,2013-04-24 03:56:00,